Hourly Data Report for October 05, 2017

All times are specified in Local Standard Time (LST). Add 1 hour to adjust for Daylight Saving Time where and when it is observed.

GEORGE ISLAND (AUT)
MANITOBA

52°49'07.014" N
97°36'59.028" W
222.50 m
5030984
71445
WWS

Download Data

Hourly Data (October 2017)
Hourly Data Report for October 5, 2017
Temp Definition
°C
Dew Point Temp Definition
°C
Rel Hum Definition
%
Wind Dir Definition
10's deg

Wind Spd Definition
km/h
Visibility Definition
km
Stn Press Definition
kPa
Hmdx Definition


Wind Chill Definition


Weather Definition


TIME
00:00 8.3 4.6 78 3 18   99.11     LegendNANA
01:00 9.0 1.6 60 35 29   99.13     LegendNANA
02:00 8.6 2.1 64 32 31   99.13     LegendNANA
03:00 8.5 1.6 62 33 36   99.12     LegendNANA
04:00 8.0 0.4 58 32 29   99.16     LegendNANA
05:00 7.9 0.2 58 32 29   99.19     LegendNANA
06:00 7.9 0.6 60 32 27   99.19     LegendNANA
07:00 7.9 1.1 62 32 30   99.20     LegendNANA
08:00 7.7 0.0 58 31 25   99.21     LegendNANA
09:00 8.1 0.3 58 31 25   99.22     LegendNANA
10:00 8.2 1.0 60 31 31   99.20     LegendNANA
11:00 8.4 0.7 58 31 25   99.20     LegendNANA
12:00 9.3 0.6 55 28 17   99.15     LegendNANA
13:00 10.3 0.7 51 27 19   99.11     LegendNANA
14:00 10.8 1.0 51 27 20   99.04     LegendNANA
15:00 11.5 2.2 53 25 22   98.99     LegendNANA
16:00 11.1 2.0 53 26 21   98.93     LegendNANA
17:00 11.2 3.1 57 26 17   98.87     LegendNANA
18:00 11.4 1.8 52 27 21   98.81     LegendNANA
19:00 11.7 4.4 61 25 25   98.76     LegendNANA
20:00 12.1 4.6 60 24 35   98.68     LegendNANA
21:00 12.5 6.2 65 24 37   98.61     LegendNANA
22:00 12.7 6.0 64 24 34   98.55     LegendNANA
23:00 12.7 6.4 65 24 37   98.49     LegendNANA

Notes on Data Quality.

Legend

  • E = Estimated
  • M = Missing
  • NA = Not Available
  • ‡ = Partner data that is not subject to review by the National Climate Archives
Date modified: